Regional Weather Roundup
Issued by NWS

Home | Current Version | Previous Version | Text Only | Print | Product List | Glossary On
Versions: 1 2 3 4 5 6 7 8 9 10 11 12 13 14 15 16 17 18 19 20 21 22 23 24 25 26 27 28 29 30 31 32 33 34 35 36 37 38 39 40 41 42 43 44 45 46 47 48 49 50
785
ASUS43 KOAX 140210
RWRNE

WEATHER ROUNDUP FOR NEBRASKA
NATIONAL WEATHER SERVICE OMAHA NE
800 PM CST SAT FEB 13 2016

NOTES: SATELLITE DATA IS BEING USED TO AUGMENT CLOUD COVER ABOVE
       12000 FEET.
       "FAIR" INDICATES FEW OR NO CLOUDS BELOW 12,000 FEET WITH NO
       SIGNIFICANT WEATHER AND/OR OBSTRUCTIONS TO VISIBILITY.

  * THESE STATIONS DO NOT REPORT WEATHER SUCH AS RAIN...SNOW OR FOG.

NEZ001>004-019>022-054>056-140300-
NEBRASKA PANHANDLE

CITY           SKY/WX    TMP DP  RH WIND       PRES   REMARKS
SCOTTSBLUFF    PTCLDY    40  30  67 N33G43    29.96R WCI  28
ALLIANCE       CLEAR     39  31  72 NW28G43   29.89R WCI  28
CHADRON        LGT RAIN  40  32  73 NW41G55   29.93R WCI  27
KIMBALL        CLEAR     48  19  32 NW23G32   29.93R
SIDNEY         CLOUDY    37  33  85 SW12      29.89R WCI  29
$$

NEZ057>060-069>072-079>082-140300-
SOUTHWEST NEBRASKA

CITY           SKY/WX    TMP DP  RH WIND       PRES   REMARKS
NORTH PLATTE   CLOUDY    27  23  85 S13       29.94F WCI  16
IMPERIAL       CLOUDY    30  28  92 S10       29.94R WCI  21
LEXINGTON      PTCLDY    25  15  67 SE14      30.00F WCI  13
MCCOOK         CLOUDY    28  23  81 SE6       29.97F WCI  22
OGALLALA       CLOUDY    31  28  90 S7        29.91F WCI  24
$$

NEZ005>010-023>029-035>040-094-140300-
NORTH CENTRAL NEBRASKA

CITY           SKY/WX    TMP DP  RH WIND       PRES   REMARKS
VALENTINE      CLOUDY    27  24  89 S22G29    29.82F WCI  13
AINSWORTH      CLOUDY    25  21  86 S21G29    29.88F WCI  10
BROKEN BOW     CLOUDY    22  14  71 S17G24    29.98F WCI   8
O`NEILL        CLOUDY    20  11  66 S20       30.01F WCI   5
ORD            CLOUDY    20   9  62 S14       30.01F WCI   7
THEDFORD       CLOUDY    28  26  95 S21G28    29.89F FOG     WCI  14
$$

NEZ041-046>049-061>064-073>077-083>087-140300-
SOUTH CENTRAL NEBRASKA

CITY           SKY/WX    TMP DP  RH WIND       PRES   REMARKS
GRAND ISLAND   CLOUDY    20   8  60 SE14      30.10F WCI   7
AURORA         CLOUDY    19   9  64 SE14      30.10F WCI   6
HASTINGS       CLOUDY    20   8  60 SE13      30.08F WCI   7
HEBRON         CLOUDY    22   7  51 SE12      30.15F WCI  11
HOLDREGE       CLEAR     22  13  67 SE9       30.03F WCI  11
KEARNEY *      PTCLDY    19  10  68 SE14      30.04F WCI   6
YORK           CLOUDY    19  10  68 SE20      30.13F WCI   4
$$

NEZ011>018-030>034-042>045-140300-
NORTHEAST NEBRASKA

CITY           SKY/WX    TMP DP  RH WIND       PRES   REMARKS
NORFOLK        CLOUDY    17   8  67 SE15      30.14F WCI   2
ALBION         CLOUDY    19  10  67 SE16      30.08F WCI   5
BLAIR          CLOUDY    18   4  55 SE16      30.22F WCI   3
COLUMBUS *     CLOUDY    18   1  49 SE12      30.17F WCI   5
FREMONT        CLOUDY    18   4  54 SE12G20   30.23S WCI   6
TEKAMAH        CLOUDY    18   6  59 SE15      30.26F WCI   4
WAYNE          CLOUDY    16   7  67 S17       30.19F WCI   0
$$

NEZ050>053-065>068-078-088>093-140300-
SOUTHEAST NEBRASKA

CITY           SKY/WX    TMP DP  RH WIND       PRES   REMARKS
LINCOLN        CLOUDY    20   6  55 SE13      30.23F WCI   7
OMAHA EPPLEY   CLOUDY    19   3  49 SE16      30.27F WCI   4
BEATRICE       CLOUDY    21   4  48 SE13      30.20F WCI   9
FALLS CITY     CLOUDY    20   2  45 SE10      30.29R WCI   9
NEBRASKA CITY  CLOUDY    19   1  45 SE13      30.26S WCI   6
PLATTSMOUTH    CLOUDY    18   2  50 SE15G22   30.24F WCI   4
$$

NEZ044-045-051>053-067-140300-
OMAHA AREA

CITY           SKY/WX    TMP DP  RH WIND       PRES   REMARKS
OMAHA EPPLEY   CLOUDY    19   3  49 SE16      30.27F WCI   4
BLAIR          CLOUDY    18   4  55 SE16      30.22F WCI   3
FREMONT        CLOUDY    18   4  54 SE12G20   30.23S WCI   6
MILLARD        CLOUDY    19   4  51 SE12G20   30.26S WCI   7
OFFUTT AFB     CLOUDY    19   2  49 SE15      30.25F WCI   5
PLATTSMOUTH    CLOUDY    18   2  50 SE15G22   30.24F WCI   4
WAHOO          CLOUDY    19   8  61 SE16      30.23S WCI   4
$$




USA.gov is the U.S. government's official web portal to all federal, state and local government web resources and services.